TITAN 3C TRANSTAGE DEB, 1964

Orbit data source: Space-Track

TITAN 3C TRANSTAGE DEB, 1964 is space debris in LEO originally from a launch on Fri, 15 Oct 1965 UTC launched from the Air Force Eastern Test Range (AFETR). Debris objects in space refer to the collection of defunct objects orbiting the Earth. Examples of debris include non-operational satellites, rocket bodies, and fragments generated from explosions, collisions, or faulty payload assembly.

Loading next visibility...
TITAN 3C TRANSTAGE DEB details
Identifier
1964, 1965-082GZ
Orbit
LEO
Last TLE update1 day ago
Origin
Flag of USUSAF SSD (US)
ManufacturerUnknown
MissionSpacecraft
Bus & MotorUnknown
MassUnknown
Launch date (UTC)
1965-10-15 (59 years ago)
Launch vehicleUnknown
Launch site
Air Force Eastern Test Range (AFETR)
Object type
Payload
Rocket body
Debris
Shape & HBRUnknown
Radar Cross SectionSmall (<0.1 m²)

Expand to show TLE details & history

TLE from 1 day ago
0 TITAN 3C TRANSTAGE DEB
1  1964U 65082GZ  24355.56547354  .00002414  00000-0  85608-3 0  9990
2  1964  32.1959 295.1809 0181771 278.1306  79.8747 14.24311014 40600
Epoch: 2024-12-20T13:34Z
Definitive object data (Epoch: 2024-12-20T13:34:16.913Z)
Latitude-0.00002°
Longitude1.98124°
Altitude788.834 km
Speed7.472 km/s
True Right ascension19h 40m 43s
True Declination0° 00' 00"
Sunlit
Object was in daylight at TLE epoch
Visualization TLE readout
Latitude0.38756°
Longitude175.71416°
Altitude846.616 km
Speed7.412 km/s
Apparent Right ascension04h 54m 29s
Apparent Declination-25° 25' 26"
Sunlit
Object is in full shadow
Visualization observer readout
Local Sidereal Time13:00:47
Azimuth268.075° W
Elevation-39.654°
Doppler factor1
Orbital elements
Apogee altitude945.073 km
Perigee altitude683.597 km
Semi-major axis7,192.472 km
Eccentricity0.0181771
Inclination32.1959°
RAAN295.1809°
Arg. of periapsis278.1306°
True anomaly81.93298°
Mean anomaly79.8747°
Eccentric anomaly80.90307°
Mean motion3.55816 °/min
BSTAR0.00085608
Orbital period101.18 mins
Loading maneuver chart data...

TITAN 3C TRANSTAGE DEB Visibility forecast

Observer location: undefined°, undefined

Span
Click to sort rows by Start time (UTC) header in descending order
Start Az.
Max El. time (UTC)
Max El. Az.
Max El.
End time (UTC)
End Az.
9 mins2024-12-21 23:25:43.801Z207.213° SW2024-12-21 23:29:43.801Z163.925° S21.574°2024-12-21 23:34:43.801Z108.67° ESE
10 mins2024-12-22 01:12:43.801Z232.423° WSW2024-12-22 01:16:43.801Z176.845° S32.319°2024-12-22 01:22:43.801Z106.49° ESE
9 mins2024-12-22 02:59:43.801Z246.515° WSW2024-12-22 03:03:43.801Z191.913° SSW31.768°2024-12-22 03:08:43.801Z127.099° SE
7 mins2024-12-22 04:47:43.801Z237.783° WSW2024-12-22 04:50:43.801Z202.427° SSW20.651°2024-12-22 04:54:43.801Z159.424° S
|